User: anonymous   Login
Location: Boiro
(42.6475°N, 8.8834°W)
Time: 16:00:14
(UTC+02:00)
Language:

XW-2C - Orbit

View from above orbital plane
View from above orbital plane
View from above satellite
View from above satellite

Ground track
Ground track

The orbit data is extracted from the following two-line orbital elements,

1 40906U 15049H   24253.14021626  .00081164  00000-0  14078-2 0  9998
2 40906  97.4738 272.5405 0005949  24.3552 335.7979 15.50571520497444
Epoch (UTC): 09 September 2024 03:21:54
Eccentricity: 0.0005949
inclination: 97.4738°
perigee height: 411 km
apogee height: 419 km
right ascension of ascending node: 272.5405°
argument of perigee: 24.3552°
revolutions per day: 15.50571520
mean anomaly at epoch: 335.7979°
orbit number at epoch: 49744

The dashed part of the orbit path shows where the satellite is in the earth's shadow,  

DLR